Home   Weather   Gainesville   Past weeks

Flag for USA Past Weather in Gainesville, Florida, USA — Yesterday and Last 2 Weeks

Now
67 °F

Passing clouds.


Feels Like: 67 °F
Forecast: 60 / 76 °F
Wind: 5 mph from Northwest

Location: Gainesville Regional Airport

Current Time: Apr 24, 2017 at 5:28:33 am

Latest Report: Apr 24, 2017 at 5:02 am


Visibility: 10 mi

Pressure: 29.71 "Hg

Humidity: 87%

Dew Point: 63 °F

Location of GainesvilleLocation

Past Weather in Gainesville — Graph

°F

Gainesville Temperature Yesterday

Maximum temperature yesterday: 89 °F (at 3:53 pm)
Minimum temperature yesterday: 63 °F (at 6:53 am)
Average temperature yesterday: 76 °F

High & Low Weather Summary for the Past Weeks

 TemperatureHumidityPressure
High89 °F (Apr 23, 3:53 pm)100% (Apr 14, 3:53 am)30.30 "Hg (Apr 14, 3:53 am)
Low42 °F (Apr 9, 6:53 am)26% (Apr 9, 11:53 am)29.71 "Hg (Apr 24, 3:53 am)
Average70 °F67%30.13 "Hg
* Reported Apr 9 3:53 am — Apr 24 3:53 am, Gainesville, Weather by CustomWeather, © 2017

Note: Actual official high and low records may vary slightly from our data, if they occured in-between our weather recording intervals... More about our weather records

Advertising

Gainesville Weather History for the Previous 24 Hours

Scroll right to see more
 ConditionsComfort  
Time TempWeatherWind HumidityBarometerVisibility
3:53 am
Mon, Apr 24
69 °FPassing clouds.7 mph87%29.71 "Hg10 mi
3:13 am70 °FMostly cloudy.6 mph84%29.73 "Hg10 mi
2:53 am70 °FPartly cloudy.6 mph84%29.72 "Hg10 mi
1:53 am71 °FPassing clouds.8 mph84%29.75 "Hg10 mi
12:53 am72 °FPassing clouds.8 mph81%29.77 "Hg10 mi
11:53 pm
Sun, Apr 23
72 °FPassing clouds.7 mph81%29.78 "Hg10 mi
10:53 pm74 °FPartly cloudy.9 mph71%29.79 "Hg10 mi
9:53 pm74 °FPassing clouds.5 mph67%29.78 "Hg10 mi
8:53 pm76 °FPassing clouds.7 mph62%29.76 "Hg10 mi
7:53 pm79 °FBroken clouds.12 mph58%29.74 "Hg10 mi
6:53 pm82 °FScattered clouds.7 mph55%29.73 "Hg10 mi
5:53 pm85 °FPassing clouds.8 mph46%29.72 "Hg10 mi
4:53 pm85 °FMostly cloudy.10 mph48%29.73 "Hg10 mi
3:53 pm89 °FPartly sunny.9 mph41%29.75 "Hg10 mi
2:53 pm85 °FScattered clouds.5 mph46%29.78 "Hg10 mi
1:53 pm86 °FPassing clouds.8 mph45%29.81 "Hg10 mi
12:53 pm82 °FPartly sunny.5 mph51%29.84 "Hg10 mi
11:53 am80 °FPartly sunny.5 mph52%29.87 "Hg10 mi
10:53 am79 °FPartly sunny.6 mph48%29.87 "Hg10 mi
9:53 am76 °FSunny.No wind58%29.87 "Hg10 mi
8:53 am74 °FSunny.No wind67%29.87 "Hg10 mi
7:53 am67 °FOvercast.No wind85%29.89 "Hg10 mi
6:53 am63 °FPassing clouds.3 mph90%29.87 "Hg10 mi
5:53 am65 °FPassing clouds.No wind87%29.86 "Hg10 mi
Weather by CustomWeather, © 2017

See weather overviewHow to use our weather pages